Time,TemperatureF,DewpointF,PressureIn,WindDirection,WindDirectionDegrees,WindSpeedMPH,WindSpeedGustMPH,Humidity,HourlyPrecipIn,Conditions,Clouds,dailyrainin,SoftwareType,DateUTC
2013-01-26 00:03:00,25.8,22.2,30.07,SW,236,7.0,8.0,86,0.00,,,0.00,Wunderground v.1.15,2013-01-26 05:03:00,
2013-01-26 00:09:00,25.8,22.2,30.07,SW,233,6.0,8.0,86,0.00,,,0.00,Wunderground v.1.15,2013-01-26 05:09:00,
2013-01-26 00:16:00,25.8,22.2,30.07,WSW,249,7.0,8.0,86,0.00,,,0.00,Wunderground v.1.15,2013-01-26 05:16:00,
2013-01-26 00:19:00,25.9,22.0,30.07,WSW,243,7.0,8.0,85,0.00,,,0.00,Wunderground v.1.15,2013-01-26 05:19:00,
2013-01-26 00:23:00,25.9,22.0,30.08,SW,235,6.0,6.0,85,0.00,,,0.00,Wunderground v.1.15,2013-01-26 05:23:00,
2013-01-26 00:29:00,25.9,22.0,30.08,SW,229,6.0,6.0,85,0.00,,,0.00,Wunderground v.1.15,2013-01-26 05:29:00,
2013-01-26 00:35:00,25.9,22.0,30.08,WSW,238,6.0,7.0,85,0.00,,,0.00,Wunderground v.1.15,2013-01-26 05:35:00,
2013-01-26 00:41:00,25.8,21.9,30.08,SW,235,6.0,6.0,85,0.00,,,0.00,Wunderground v.1.15,2013-01-26 05:41:00,
2013-01-26 00:47:00,25.7,21.8,30.08,WSW,239,6.0,7.0,85,0.00,,,0.00,Wunderground v.1.15,2013-01-26 05:47:00,
2013-01-26 00:53:00,25.6,21.7,30.08,WSW,250,5.0,5.0,85,0.00,,,0.00,Wunderground v.1.15,2013-01-26 05:53:00,
2013-01-26 00:59:00,25.5,21.9,30.09,WSW,256,5.0,7.0,86,0.00,,,0.00,Wunderground v.1.15,2013-01-26 05:59:00,
2013-01-26 01:04:00,25.5,21.9,30.09,West,263,6.0,11.0,86,0.00,,,0.00,Wunderground v.1.15,2013-01-26 06:04:00,
2013-01-26 01:11:00,25.6,22.0,30.09,West,264,8.0,10.0,86,0.00,,,0.00,Wunderground v.1.15,2013-01-26 06:11:00,
2013-01-26 01:17:00,25.8,22.2,30.09,West,273,8.0,10.0,86,0.00,,,0.00,Wunderground v.1.15,2013-01-26 06:17:00,
2013-01-26 01:23:00,25.7,22.4,30.10,West,267,8.0,8.0,87,0.00,,,0.00,Wunderground v.1.15,2013-01-26 06:23:00,
2013-01-26 01:29:00,25.7,22.4,30.10,West,271,7.0,8.0,87,0.00,,,0.00,Wunderground v.1.15,2013-01-26 06:29:00,
2013-01-26 01:35:00,25.6,22.3,30.10,WNW,288,7.0,7.0,87,0.00,,,0.00,Wunderground v.1.15,2013-01-26 06:35:00,
2013-01-26 01:41:00,25.6,22.3,30.10,WNW,283,6.0,6.0,87,0.00,,,0.00,Wunderground v.1.15,2013-01-26 06:41:00,
2013-01-26 01:46:00,25.6,22.3,30.11,WNW,290,6.0,10.0,87,0.00,,,0.00,Wunderground v.1.15,2013-01-26 06:46:00,
2013-01-26 01:53:00,25.8,22.5,30.11,West,267,7.0,7.0,87,0.00,,,0.00,Wunderground v.1.15,2013-01-26 06:53:00,
2013-01-26 01:59:00,25.9,22.6,30.11,West,277,8.0,11.0,87,0.00,,,0.00,Wunderground v.1.15,2013-01-26 06:59:00,
2013-01-26 02:05:00,25.8,22.5,30.11,WNW,284,8.0,10.0,87,0.00,,,0.00,Wunderground v.1.15,2013-01-26 07:05:00,
2013-01-26 02:11:00,25.9,22.3,30.12,WNW,295,8.0,9.0,86,0.00,,,0.00,Wunderground v.1.15,2013-01-26 07:11:00,
2013-01-26 02:17:00,25.9,22.3,30.12,WNW,290,7.0,11.0,86,0.00,,,0.00,Wunderground v.1.15,2013-01-26 07:17:00,
2013-01-26 02:23:00,25.8,22.2,30.12,WNW,298,8.0,10.0,86,0.00,,,0.00,Wunderground v.1.15,2013-01-26 07:23:00,
2013-01-26 02:29:00,25.8,21.6,30.12,WNW,287,9.0,15.0,84,0.00,,,0.00,Wunderground v.1.15,2013-01-26 07:29:00,
2013-01-26 02:34:00,25.7,21.3,30.12,WNW,294,10.0,10.0,83,0.00,,,0.00,Wunderground v.1.15,2013-01-26 07:34:00,
2013-01-26 02:41:00,25.6,21.2,30.13,WNW,298,10.0,10.0,83,0.00,,,0.00,Wunderground v.1.15,2013-01-26 07:41:00,
2013-01-26 02:47:00,25.5,21.1,30.13,WNW,298,10.0,11.0,83,0.00,,,0.00,Wunderground v.1.15,2013-01-26 07:47:00,
2013-01-26 02:53:00,25.4,20.7,30.13,WNW,302,9.0,9.0,82,0.00,,,0.00,Wunderground v.1.15,2013-01-26 07:53:00,
2013-01-26 02:59:00,25.3,20.6,30.13,WNW,298,9.0,13.0,82,0.00,,,0.00,Wunderground v.1.15,2013-01-26 07:59:00,
2013-01-26 03:05:00,25.2,19.6,30.14,WNW,294,10.0,16.0,79,0.00,,,0.00,Wunderground v.1.15,2013-01-26 08:05:00,
2013-01-26 03:11:00,25.1,19.5,30.14,WNW,293,10.0,10.0,79,0.00,,,0.00,Wunderground v.1.15,2013-01-26 08:11:00,
2013-01-26 03:17:00,25.0,19.7,30.14,WNW,297,8.0,10.0,80,0.00,,,0.00,Wunderground v.1.15,2013-01-26 08:17:00,
2013-01-26 03:22:00,24.8,19.2,30.14,WNW,300,7.0,9.0,79,0.00,,,0.00,Wunderground v.1.15,2013-01-26 08:22:00,
2013-01-26 03:29:00,24.7,19.4,30.14,WNW,297,8.0,9.0,80,0.00,,,0.00,Wunderground v.1.15,2013-01-26 08:29:00,
2013-01-26 03:35:00,24.6,18.7,30.14,WNW,290,8.0,11.0,78,0.00,,,0.00,Wunderground v.1.15,2013-01-26 08:35:00,
2013-01-26 03:40:00,24.5,18.9,30.15,WNW,288,9.0,9.0,79,0.00,,,0.00,Wunderground v.1.15,2013-01-26 08:40:00,
2013-01-26 03:47:00,24.4,18.5,30.15,WNW,294,9.0,9.0,78,0.00,,,0.00,Wunderground v.1.15,2013-01-26 08:47:00,
2013-01-26 03:53:00,24.3,18.4,30.15,WNW,302,9.0,9.0,78,0.00,,,0.00,Wunderground v.1.15,2013-01-26 08:53:00,
2013-01-26 03:59:00,24.2,18.3,30.14,WNW,300,8.0,9.0,78,0.00,,,0.00,Wunderground v.1.15,2013-01-26 08:59:00,
2013-01-26 04:04:00,24.1,18.5,30.14,WNW,287,8.0,8.0,79,0.00,,,0.00,Wunderground v.1.15,2013-01-26 09:04:00,
2013-01-26 04:11:00,24.0,18.4,30.15,WNW,293,7.0,7.0,79,0.00,,,0.00,Wunderground v.1.15,2013-01-26 09:11:00,
2013-01-26 04:17:00,24.0,18.4,30.15,WNW,287,7.0,7.0,79,0.00,,,0.00,Wunderground v.1.15,2013-01-26 09:17:00,
2013-01-26 04:22:00,24.0,18.4,30.15,WNW,288,7.0,10.0,79,0.00,,,0.00,Wunderground v.1.15,2013-01-26 09:22:00,
2013-01-26 04:29:00,23.9,18.3,30.15,WNW,291,7.0,10.0,79,0.00,,,0.00,Wunderground v.1.15,2013-01-26 09:29:00,
2013-01-26 04:35:00,23.8,18.5,30.16,WNW,295,6.0,7.0,80,0.00,,,0.00,Wunderground v.1.15,2013-01-26 09:35:00,
2013-01-26 04:41:00,23.7,18.4,30.16,WNW,292,6.0,6.0,80,0.00,,,0.00,Wunderground v.1.15,2013-01-26 09:41:00,
2013-01-26 04:46:00,23.8,18.2,30.16,WNW,302,7.0,8.0,79,0.00,,,0.00,Wunderground v.1.15,2013-01-26 09:46:00,
2013-01-26 04:53:00,23.8,18.5,30.16,WNW,302,7.0,9.0,80,0.00,,,0.00,Wunderground v.1.15,2013-01-26 09:53:00,
2013-01-26 04:59:00,23.8,18.5,30.17,WNW,302,7.0,12.0,80,0.00,,,0.00,Wunderground v.1.15,2013-01-26 09:59:00,
2013-01-26 05:05:00,23.9,18.3,30.17,NW,305,8.0,8.0,79,0.00,,,0.00,Wunderground v.1.15,2013-01-26 10:05:00,
2013-01-26 05:11:00,23.8,18.5,30.17,NW,304,7.0,7.0,80,0.00,,,0.00,Wunderground v.1.15,2013-01-26 10:11:00,
2013-01-26 05:17:00,23.8,18.8,30.17,WNW,302,7.0,9.0,81,0.00,,,0.00,Wunderground v.1.15,2013-01-26 10:17:00,
2013-01-26 05:23:00,23.7,18.4,30.17,NW,306,7.0,9.0,80,0.00,,,0.00,Wunderground v.1.15,2013-01-26 10:23:00,
2013-01-26 05:29:00,23.8,18.5,30.17,WNW,302,7.0,9.0,80,0.00,,,0.00,Wunderground v.1.15,2013-01-26 10:29:00,
2013-01-26 05:35:00,23.8,18.8,30.17,WNW,302,7.0,8.0,81,0.00,,,0.00,Wunderground v.1.15,2013-01-26 10:35:00,
2013-01-26 05:41:00,23.8,18.8,30.18,WNW,300,7.0,7.0,81,0.00,,,0.00,Wunderground v.1.15,2013-01-26 10:41:00,
2013-01-26 05:47:00,23.8,18.8,30.18,NW,305,7.0,9.0,81,0.00,,,0.00,Wunderground v.1.15,2013-01-26 10:47:00,
2013-01-26 05:53:00,23.7,19.0,30.19,WNW,296,7.0,10.0,82,0.00,,,0.00,Wunderground v.1.15,2013-01-26 10:53:00,
2013-01-26 05:59:00,23.7,19.0,30.19,WNW,293,7.0,10.0,82,0.00,,,0.00,Wunderground v.1.15,2013-01-26 10:59:00,
2013-01-26 06:05:00,23.6,18.9,30.19,NW,311,6.0,7.0,82,0.00,,,0.00,Wunderground v.1.15,2013-01-26 11:05:00,
2013-01-26 06:11:00,23.6,18.9,30.19,WNW,295,6.0,9.0,82,0.00,,,0.00,Wunderground v.1.15,2013-01-26 11:11:00,
2013-01-26 06:16:00,23.6,19.2,30.19,NW,304,7.0,9.0,83,0.00,,,0.00,Wunderground v.1.15,2013-01-26 11:16:00,
2013-01-26 06:23:00,23.4,19.0,30.19,WNW,293,6.0,6.0,83,0.00,,,0.00,Wunderground v.1.15,2013-01-26 11:23:00,
2013-01-26 06:29:00,23.2,18.8,30.19,WNW,293,6.0,7.0,83,0.00,,,0.00,Wunderground v.1.15,2013-01-26 11:29:00,
2013-01-26 06:35:00,23.0,18.6,30.20,WNW,293,6.0,7.0,83,0.00,,,0.00,Wunderground v.1.15,2013-01-26 11:35:00,
2013-01-26 06:41:00,22.9,18.8,30.20,WNW,288,6.0,6.0,84,0.00,,,0.00,Wunderground v.1.15,2013-01-26 11:41:00,
2013-01-26 06:47:00,22.9,18.8,30.21,WNW,284,5.0,6.0,84,0.00,,,0.00,Wunderground v.1.15,2013-01-26 11:47:00,
2013-01-26 06:53:00,22.9,18.8,30.21,WNW,293,4.0,5.0,84,0.00,,,0.00,Wunderground v.1.15,2013-01-26 11:53:00,
2013-01-26 06:58:00,22.7,18.6,30.22,WNW,283,3.0,5.0,84,0.00,,,0.00,Wunderground v.1.15,2013-01-26 11:58:00,
2013-01-26 07:05:00,22.4,18.3,30.22,WNW,290,3.0,4.0,84,0.00,,,0.00,Wunderground v.1.15,2013-01-26 12:05:00,
2013-01-26 07:11:00,22.4,18.3,30.23,WNW,291,4.0,4.0,84,0.00,,,0.00,Wunderground v.1.15,2013-01-26 12:11:00,
2013-01-26 07:17:00,22.3,18.2,30.23,WNW,287,3.0,4.0,84,0.00,,,0.00,Wunderground v.1.15,2013-01-26 12:17:00,
2013-01-26 07:23:00,22.0,17.9,30.23,West,264,3.0,3.0,84,0.00,,,0.00,Wunderground v.1.15,2013-01-26 12:23:00,
2013-01-26 07:29:00,21.3,17.5,30.23,West,264,2.0,3.0,85,0.00,,,0.00,Wunderground v.1.15,2013-01-26 12:29:00,
2013-01-26 07:35:00,21.0,17.5,30.24,West,276,2.0,3.0,86,0.00,,,0.00,Wunderground v.1.15,2013-01-26 12:35:00,
2013-01-26 07:40:00,21.2,17.7,30.24,West,273,3.0,3.0,86,0.00,,,0.00,Wunderground v.1.15,2013-01-26 12:40:00,
2013-01-26 07:47:00,21.3,17.8,30.24,West,280,2.0,3.0,86,0.00,,,0.00,Wunderground v.1.15,2013-01-26 12:47:00,
2013-01-26 07:53:00,21.3,17.8,30.24,West,266,2.0,2.0,86,0.00,,,0.00,Wunderground v.1.15,2013-01-26 12:53:00,
2013-01-26 07:59:00,21.2,17.9,30.25,WSW,245,2.0,3.0,87,0.00,,,0.00,Wunderground v.1.15,2013-01-26 12:59:00,
2013-01-26 08:05:00,21.1,17.8,30.25,WSW,257,2.0,2.0,87,0.00,,,0.00,Wunderground v.1.15,2013-01-26 13:05:00,
2013-01-26 08:11:00,21.1,17.8,30.25,West,263,2.0,3.0,87,0.00,,,0.00,Wunderground v.1.15,2013-01-26 13:11:00,
2013-01-26 08:17:00,21.3,18.0,30.25,West,274,3.0,3.0,87,0.00,,,0.00,Wunderground v.1.15,2013-01-26 13:17:00,
2013-01-26 08:23:00,21.4,18.1,30.26,West,264,3.0,3.0,87,0.00,,,0.00,Wunderground v.1.15,2013-01-26 13:23:00,
2013-01-26 08:29:00,21.6,18.3,30.26,West,268,3.0,4.0,87,0.00,,,0.00,Wunderground v.1.15,2013-01-26 13:29:00,
2013-01-26 08:35:00,21.8,18.3,30.27,West,266,4.0,4.0,86,0.00,,,0.00,Wunderground v.1.15,2013-01-26 13:35:00,
2013-01-26 08:41:00,21.9,18.4,30.27,West,269,4.0,4.0,86,0.00,,,0.00,Wunderground v.1.15,2013-01-26 13:41:00,
2013-01-26 08:47:00,22.0,18.5,30.27,West,270,3.0,4.0,86,0.00,,,0.00,Wunderground v.1.15,2013-01-26 13:47:00,
2013-01-26 08:53:00,22.1,18.6,30.27,West,264,3.0,4.0,86,0.00,,,0.00,Wunderground v.1.15,2013-01-26 13:53:00,
2013-01-26 08:59:00,22.1,18.6,30.28,West,278,3.0,4.0,86,0.00,,,0.00,Wunderground v.1.15,2013-01-26 13:59:00,
2013-01-26 09:05:00,22.2,18.7,30.28,West,260,3.0,5.0,86,0.00,,,0.00,Wunderground v.1.15,2013-01-26 14:05:00,
2013-01-26 09:11:00,22.2,18.4,30.28,West,267,4.0,5.0,85,0.00,,,0.00,Wunderground v.1.15,2013-01-26 14:11:00,
2013-01-26 09:17:00,22.1,18.3,30.28,West,271,6.0,8.0,85,0.00,,,0.00,Wunderground v.1.15,2013-01-26 14:17:00,
2013-01-26 09:23:00,22.1,18.3,30.29,West,269,6.0,6.0,85,0.00,,,0.00,Wunderground v.1.15,2013-01-26 14:23:00,
2013-01-26 09:29:00,22.1,18.3,30.29,West,264,7.0,7.0,85,0.00,,,0.00,Wunderground v.1.15,2013-01-26 14:29:00,
2013-01-26 09:35:00,22.1,18.3,30.29,West,272,7.0,8.0,85,0.00,,,0.00,Wunderground v.1.15,2013-01-26 14:35:00,
2013-01-26 09:40:00,22.0,18.2,30.29,West,266,7.0,7.0,85,0.00,,,0.00,Wunderground v.1.15,2013-01-26 14:40:00,
2013-01-26 09:47:00,22.1,18.3,30.30,West,272,7.0,7.0,85,0.00,,,0.00,Wunderground v.1.15,2013-01-26 14:47:00,
2013-01-26 09:53:00,22.1,18.3,30.30,West,271,7.0,7.0,85,0.00,,,0.00,Wunderground v.1.15,2013-01-26 14:53:00,
2013-01-26 09:59:00,22.2,18.4,30.30,West,267,6.0,7.0,85,0.00,,,0.00,Wunderground v.1.15,2013-01-26 14:59:00,
2013-01-26 10:05:00,22.4,18.6,30.31,West,276,7.0,8.0,85,0.00,,,0.00,Wunderground v.1.15,2013-01-26 15:05:00,
2013-01-26 10:11:00,22.4,18.3,30.31,West,278,6.0,6.0,84,0.00,,,0.00,Wunderground v.1.15,2013-01-26 15:11:00,
2013-01-26 10:17:00,22.6,18.5,30.32,West,263,6.0,7.0,84,0.00,,,0.00,Wunderground v.1.15,2013-01-26 15:17:00,
2013-01-26 10:23:00,22.8,18.7,30.32,West,273,6.0,6.0,84,0.00,,,0.00,Wunderground v.1.15,2013-01-26 15:23:00,
2013-01-26 10:29:00,23.1,19.0,30.32,West,269,6.0,7.0,84,0.00,,,0.00,Wunderground v.1.15,2013-01-26 15:29:00,
2013-01-26 10:35:00,23.3,19.2,30.32,West,266,7.0,9.0,84,0.00,,,0.00,Wunderground v.1.15,2013-01-26 15:35:00,
2013-01-26 10:41:00,23.6,19.2,30.33,West,269,8.0,9.0,83,0.00,,,0.00,Wunderground v.1.15,2013-01-26 15:41:00,
2013-01-26 10:47:00,23.8,19.4,30.33,West,271,7.0,9.0,83,0.00,,,0.00,Wunderground v.1.15,2013-01-26 15:47:00,
2013-01-26 10:53:00,23.9,19.5,30.34,West,270,7.0,7.0,83,0.00,,,0.00,Wunderground v.1.15,2013-01-26 15:53:00,
2013-01-26 10:59:00,24.0,19.6,30.34,West,281,7.0,7.0,83,0.00,,,0.00,Wunderground v.1.15,2013-01-26 15:59:00,
2013-01-26 11:05:00,24.2,19.5,30.34,West,276,7.0,8.0,82,0.00,,,0.00,Wunderground v.1.15,2013-01-26 16:05:00,
2013-01-26 11:11:00,24.3,19.3,30.35,WNW,286,7.0,8.0,81,0.00,,,0.00,Wunderground v.1.15,2013-01-26 16:11:00,
2013-01-26 11:17:00,24.4,19.4,30.35,WNW,284,6.0,8.0,81,0.00,,,0.00,Wunderground v.1.15,2013-01-26 16:17:00,
2013-01-26 11:23:00,24.6,19.6,30.35,WNW,287,5.0,6.0,81,0.00,,,0.00,Wunderground v.1.15,2013-01-26 16:23:00,
2013-01-26 11:29:00,24.9,19.9,30.35,West,274,6.0,9.0,81,0.00,,,0.00,Wunderground v.1.15,2013-01-26 16:29:00,
2013-01-26 11:35:00,25.3,20.0,30.36,West,274,6.0,6.0,80,0.00,,,0.00,Wunderground v.1.15,2013-01-26 16:35:00,
2013-01-26 11:41:00,25.6,20.3,30.36,WNW,295,6.0,6.0,80,0.00,,,0.00,Wunderground v.1.15,2013-01-26 16:41:00,
2013-01-26 11:47:00,25.6,20.3,30.36,West,278,7.0,9.0,80,0.00,,,0.00,Wunderground v.1.15,2013-01-26 16:47:00,
2013-01-26 11:53:00,25.5,20.5,30.36,West,280,8.0,8.0,81,0.00,,,0.00,Wunderground v.1.15,2013-01-26 16:53:00,
2013-01-26 11:59:00,25.5,20.5,30.36,WNW,283,8.0,9.0,81,0.00,,,0.00,Wunderground v.1.15,2013-01-26 16:59:00,
2013-01-26 12:05:00,25.7,20.7,30.35,WNW,284,7.0,8.0,81,0.00,,,0.00,Wunderground v.1.15,2013-01-26 17:05:00,
2013-01-26 12:11:00,25.7,20.4,30.35,West,274,6.0,6.0,80,0.00,,,0.00,Wunderground v.1.15,2013-01-26 17:11:00,
2013-01-26 12:17:00,25.9,20.9,30.35,West,276,6.0,7.0,81,0.00,,,0.00,Wunderground v.1.15,2013-01-26 17:17:00,
2013-01-26 12:23:00,25.8,20.5,30.35,West,281,7.0,8.0,80,0.00,,,0.00,Wunderground v.1.15,2013-01-26 17:23:00,
2013-01-26 12:29:00,25.7,20.7,30.35,West,267,6.0,8.0,81,0.00,,,0.00,Wunderground v.1.15,2013-01-26 17:29:00,
2013-01-26 12:35:00,25.5,20.5,30.35,WSW,257,6.0,6.0,81,0.00,,,0.00,Wunderground v.1.15,2013-01-26 17:35:00,
2013-01-26 12:40:00,25.9,21.2,30.35,West,272,6.0,6.0,82,0.00,,,0.00,Wunderground v.1.15,2013-01-26 17:40:00,
2013-01-26 12:46:00,26.0,20.7,30.35,West,275,6.0,7.0,80,0.00,,,0.00,Wunderground v.1.15,2013-01-26 17:46:00,
2013-01-26 12:52:00,26.4,20.8,30.35,West,263,6.0,7.0,79,0.00,,,0.00,Wunderground v.1.15,2013-01-26 17:52:00,
2013-01-26 12:58:00,26.9,20.7,30.35,WSW,251,6.0,7.0,77,0.00,,,0.00,Wunderground v.1.15,2013-01-26 17:58:00,
2013-01-26 13:04:00,26.8,20.6,30.34,WSW,256,5.0,6.0,77,0.00,,,0.00,Wunderground v.1.15,2013-01-26 18:04:00,
2013-01-26 13:10:00,26.7,20.5,30.34,West,266,5.0,5.0,77,0.00,,,0.00,Wunderground v.1.15,2013-01-26 18:10:00,
2013-01-26 13:16:00,26.5,20.0,30.34,West,271,5.0,7.0,76,0.00,,,0.00,Wunderground v.1.15,2013-01-26 18:16:00,
2013-01-26 13:22:00,26.5,20.0,30.34,West,280,6.0,6.0,76,0.00,,,0.00,Wunderground v.1.15,2013-01-26 18:22:00,
2013-01-26 13:28:00,26.9,19.1,30.34,NNW,330,5.0,6.0,72,0.00,,,0.00,Wunderground v.1.15,2013-01-26 18:28:00,
2013-01-26 13:34:00,27.4,19.9,30.33,WNW,287,3.0,4.0,73,0.00,,,0.00,Wunderground v.1.15,2013-01-26 18:34:00,
2013-01-26 13:40:00,27.4,19.9,30.34,WNW,301,3.0,5.0,73,0.00,,,0.00,Wunderground v.1.15,2013-01-26 18:40:00,
2013-01-26 13:46:00,27.1,18.9,30.34,North,356,5.0,7.0,71,0.00,,,0.00,Wunderground v.1.15,2013-01-26 18:46:00,
2013-01-26 13:52:00,27.0,19.2,30.34,NNW,330,6.0,6.0,72,0.00,,,0.00,Wunderground v.1.15,2013-01-26 18:52:00,
2013-01-26 13:58:00,27.1,18.6,30.34,NW,321,5.0,6.0,70,0.00,,,0.00,Wunderground v.1.15,2013-01-26 18:58:00,
2013-01-26 14:04:00,27.2,18.7,30.34,NW,306,4.0,5.0,70,0.00,,,0.00,Wunderground v.1.15,2013-01-26 19:04:00,
2013-01-26 14:10:00,27.1,19.3,30.34,NNW,340,4.0,4.0,72,0.00,,,0.00,Wunderground v.1.15,2013-01-26 19:10:00,
2013-01-26 14:16:00,27.1,19.6,30.34,NW,324,4.0,5.0,73,0.00,,,0.00,Wunderground v.1.15,2013-01-26 19:16:00,
2013-01-26 14:22:00,27.1,19.3,30.34,NW,315,5.0,6.0,72,0.00,,,0.00,Wunderground v.1.15,2013-01-26 19:22:00,
2013-01-26 14:28:00,27.4,18.9,30.34,WNW,294,4.0,6.0,70,0.00,,,0.00,Wunderground v.1.15,2013-01-26 19:28:00,
2013-01-26 14:34:00,27.4,18.9,30.34,NW,305,3.0,4.0,70,0.00,,,0.00,Wunderground v.1.15,2013-01-26 19:34:00,
2013-01-26 14:40:00,27.7,19.2,30.34,WNW,290,1.0,4.0,70,0.00,,,0.00,Wunderground v.1.15,2013-01-26 19:40:00,
2013-01-26 14:46:00,27.6,19.4,30.34,WNW,300,3.0,6.0,71,0.00,,,0.00,Wunderground v.1.15,2013-01-26 19:46:00,
2013-01-26 14:52:00,27.4,19.9,30.34,WNW,298,5.0,6.0,73,0.00,,,0.00,Wunderground v.1.15,2013-01-26 19:52:00,
2013-01-26 14:58:00,27.4,19.9,30.34,WNW,297,5.0,6.0,73,0.00,,,0.00,Wunderground v.1.15,2013-01-26 19:58:00,
2013-01-26 15:04:00,27.2,19.4,30.34,NW,316,5.0,9.0,72,0.00,,,0.00,Wunderground v.1.15,2013-01-26 20:04:00,
2013-01-26 15:10:00,27.2,19.7,30.35,NNW,333,4.0,5.0,73,0.00,,,0.00,Wunderground v.1.15,2013-01-26 20:10:00,
2013-01-26 15:16:00,27.2,20.0,30.35,NW,307,4.0,5.0,74,0.00,,,0.00,Wunderground v.1.15,2013-01-26 20:16:00,
2013-01-26 15:22:00,27.2,19.7,30.35,NNW,333,4.0,6.0,73,0.00,,,0.00,Wunderground v.1.15,2013-01-26 20:22:00,
2013-01-26 15:28:00,27.1,19.6,30.35,NNW,330,4.0,6.0,73,0.00,,,0.00,Wunderground v.1.15,2013-01-26 20:28:00,
2013-01-26 15:34:00,27.1,19.9,30.35,NNW,332,4.0,6.0,74,0.00,,,0.00,Wunderground v.1.15,2013-01-26 20:34:00,
2013-01-26 15:40:00,27.1,19.6,30.36,North,9,4.0,4.0,73,0.00,,,0.00,Wunderground v.1.15,2013-01-26 20:40:00,
2013-01-26 15:46:00,27.2,20.0,30.36,NW,306,2.0,6.0,74,0.00,,,0.00,Wunderground v.1.15,2013-01-26 20:46:00,
2013-01-26 15:52:00,27.1,19.9,30.36,WNW,302,3.0,3.0,74,0.00,,,0.00,Wunderground v.1.15,2013-01-26 20:52:00,
2013-01-26 15:58:00,27.1,20.2,30.36,WNW,295,3.0,4.0,75,0.00,,,0.00,Wunderground v.1.15,2013-01-26 20:58:00,
2013-01-26 16:04:00,27.0,19.5,30.37,West,280,4.0,6.0,73,0.00,,,0.00,Wunderground v.1.15,2013-01-26 21:04:00,
2013-01-26 16:10:00,27.0,19.8,30.37,NW,316,4.0,4.0,74,0.00,,,0.00,Wunderground v.1.15,2013-01-26 21:10:00,
2013-01-26 16:16:00,27.0,19.8,30.37,NW,316,3.0,4.0,74,0.00,,,0.00,Wunderground v.1.15,2013-01-26 21:16:00,
2013-01-26 16:22:00,27.1,20.2,30.37,WNW,288,2.0,6.0,75,0.00,,,0.00,Wunderground v.1.15,2013-01-26 21:22:00,
2013-01-26 16:28:00,27.1,20.2,30.37,WNW,302,4.0,6.0,75,0.00,,,0.00,Wunderground v.1.15,2013-01-26 21:28:00,
2013-01-26 16:34:00,27.0,19.8,30.37,WNW,297,4.0,4.0,74,0.00,,,0.00,Wunderground v.1.15,2013-01-26 21:34:00,
2013-01-26 16:40:00,26.9,20.0,30.37,WNW,298,5.0,5.0,75,0.00,,,0.00,Wunderground v.1.15,2013-01-26 21:40:00,
2013-01-26 16:46:00,26.9,19.7,30.37,NW,304,4.0,5.0,74,0.00,,,0.00,Wunderground v.1.15,2013-01-26 21:46:00,
2013-01-26 16:52:00,26.8,19.6,30.37,NW,309,4.0,4.0,74,0.00,,,0.00,Wunderground v.1.15,2013-01-26 21:52:00,
2013-01-26 16:58:00,26.8,19.9,30.37,NNW,330,3.0,4.0,75,0.00,,,0.00,Wunderground v.1.15,2013-01-26 21:58:00,
2013-01-26 17:04:00,26.7,19.8,30.37,NNW,335,3.0,3.0,75,0.00,,,0.00,Wunderground v.1.15,2013-01-26 22:04:00,
2013-01-26 17:10:00,26.7,19.8,30.37,NW,326,2.0,2.0,75,0.00,,,0.00,Wunderground v.1.15,2013-01-26 22:10:00,
2013-01-26 17:16:00,26.6,19.7,30.37,NW,305,2.0,3.0,75,0.00,,,0.00,Wunderground v.1.15,2013-01-26 22:16:00,
2013-01-26 17:22:00,26.7,19.5,30.38,NW,311,2.0,2.0,74,0.00,,,0.00,Wunderground v.1.15,2013-01-26 22:22:00,
2013-01-26 17:28:00,26.6,19.7,30.38,West,269,2.0,2.0,75,0.00,,,0.00,Wunderground v.1.15,2013-01-26 22:28:00,
2013-01-26 17:34:00,26.6,20.1,30.38,West,280,1.0,1.0,76,0.00,,,0.00,Wunderground v.1.15,2013-01-26 22:34:00,
2013-01-26 17:40:00,26.5,20.0,30.38,NW,321,1.0,1.0,76,0.00,,,0.00,Wunderground v.1.15,2013-01-26 22:40:00,
2013-01-26 17:46:00,26.5,20.0,30.39,NNW,327,1.0,2.0,76,0.00,,,0.00,Wunderground v.1.15,2013-01-26 22:46:00,
2013-01-26 17:52:00,26.4,20.5,30.38,NNW,327,1.0,1.0,78,0.00,,,0.00,Wunderground v.1.15,2013-01-26 22:52:00,
2013-01-26 17:58:00,26.2,20.3,30.39,NNW,330,0.0,1.0,78,0.00,,,0.00,Wunderground v.1.15,2013-01-26 22:58:00,
2013-01-26 18:04:00,26.3,20.1,30.39,NNW,335,0.0,1.0,77,0.00,,,0.00,Wunderground v.1.15,2013-01-26 23:04:00,
2013-01-26 18:10:00,26.2,20.3,30.39,North,356,0.0,0.0,78,0.00,,,0.00,Wunderground v.1.15,2013-01-26 23:10:00,
2013-01-26 18:16:00,26.3,20.1,30.39,North,1,0.0,0.0,77,0.00,,,0.00,Wunderground v.1.15,2013-01-26 23:16:00,
2013-01-26 18:22:00,26.2,20.0,30.39,North,1,0.0,0.0,77,0.00,,,0.00,Wunderground v.1.15,2013-01-26 23:22:00,
2013-01-26 18:28:00,26.2,20.0,30.39,North,1,0.0,0.0,77,0.00,,,0.00,Wunderground v.1.15,2013-01-26 23:28:00,
2013-01-26 18:34:00,26.1,19.9,30.39,North,1,0.0,0.0,77,0.00,,,0.00,Wunderground v.1.15,2013-01-26 23:34:00,
2013-01-26 18:40:00,26.0,20.1,30.39,North,1,0.0,0.0,78,0.00,,,0.00,Wunderground v.1.15,2013-01-26 23:40:00,
2013-01-26 18:46:00,25.9,20.3,30.39,North,1,0.0,0.0,79,0.00,,,0.00,Wunderground v.1.15,2013-01-26 23:46:00,
2013-01-26 18:52:00,26.0,19.8,30.40,NNE,18,0.0,1.0,77,0.00,,,0.00,Wunderground v.1.15,2013-01-26 23:52:00,
2013-01-26 18:58:00,26.2,19.7,30.40,NNE,18,1.0,3.0,76,0.00,,,0.00,Wunderground v.1.15,2013-01-26 23:58:00,
2013-01-26 19:04:00,26.2,19.7,30.40,NNE,17,1.0,1.0,76,0.00,,,0.00,Wunderground v.1.15,2013-01-27 00:04:00,
2013-01-26 19:10:00,26.2,20.0,30.40,East,88,0.0,1.0,77,0.00,,,0.00,Wunderground v.1.15,2013-01-27 00:10:00,
2013-01-26 19:16:00,26.0,20.1,30.40,ENE,68,1.0,2.0,78,0.00,,,0.00,Wunderground v.1.15,2013-01-27 00:16:00,
2013-01-26 19:22:00,26.0,19.8,30.39,NNE,32,2.0,2.0,77,0.00,,,0.00,Wunderground v.1.15,2013-01-27 00:22:00,
2013-01-26 19:28:00,26.1,19.9,30.40,NE,34,2.0,3.0,77,0.00,,,0.00,Wunderground v.1.15,2013-01-27 00:28:00,
2013-01-26 19:34:00,26.2,19.7,30.40,ENE,63,1.0,2.0,76,0.00,,,0.00,Wunderground v.1.15,2013-01-27 00:34:00,
2013-01-26 19:40:00,26.1,19.9,30.40,NE,53,1.0,2.0,77,0.00,,,0.00,Wunderground v.1.15,2013-01-27 00:40:00,
2013-01-26 19:46:00,26.0,19.8,30.41,NNE,30,1.0,1.0,77,0.00,,,0.00,Wunderground v.1.15,2013-01-27 00:46:00,
2013-01-26 19:52:00,25.9,20.0,30.41,NNE,30,0.0,0.0,78,0.00,,,0.00,Wunderground v.1.15,2013-01-27 00:52:00,
2013-01-26 19:58:00,25.7,20.1,30.40,East,84,0.0,1.0,79,0.00,,,0.00,Wunderground v.1.15,2013-01-27 00:58:00,
2013-01-26 20:04:00,25.8,19.6,30.41,East,84,1.0,2.0,77,0.00,,,0.00,Wunderground v.1.15,2013-01-27 01:04:00,
2013-01-26 20:10:00,26.0,19.8,30.41,East,80,1.0,1.0,77,0.00,,,0.00,Wunderground v.1.15,2013-01-27 01:10:00,
2013-01-26 20:16:00,25.9,19.7,30.41,ENE,64,1.0,2.0,77,0.00,,,0.00,Wunderground v.1.15,2013-01-27 01:16:00,
2013-01-26 20:22:00,25.5,19.9,30.41,ENE,65,1.0,1.0,79,0.00,,,0.00,Wunderground v.1.15,2013-01-27 01:22:00,
2013-01-26 20:28:00,25.3,19.7,30.41,East,88,1.0,2.0,79,0.00,,,0.00,Wunderground v.1.15,2013-01-27 01:28:00,
2013-01-26 20:34:00,25.3,19.7,30.41,ENE,63,2.0,3.0,79,0.00,,,0.00,Wunderground v.1.15,2013-01-27 01:34:00,
2013-01-26 20:40:00,25.2,19.3,30.40,ENE,72,2.0,2.0,78,0.00,,,0.00,Wunderground v.1.15,2013-01-27 01:40:00,
2013-01-26 20:46:00,25.3,19.4,30.40,East,91,1.0,2.0,78,0.00,,,0.00,Wunderground v.1.15,2013-01-27 01:46:00,
2013-01-26 20:52:00,25.3,19.1,30.40,East,91,1.0,3.0,77,0.00,,,0.00,Wunderground v.1.15,2013-01-27 01:52:00,
2013-01-26 20:58:00,25.1,18.9,30.41,ENE,59,1.0,3.0,77,0.00,,,0.00,Wunderground v.1.15,2013-01-27 01:58:00,
2013-01-26 21:04:00,24.4,18.5,30.40,East,80,2.0,2.0,78,0.00,,,0.00,Wunderground v.1.15,2013-01-27 02:04:00,
2013-01-26 21:10:00,24.5,18.9,30.40,East,90,0.0,0.0,79,0.00,,,0.00,Wunderground v.1.15,2013-01-27 02:10:00,
2013-01-26 21:16:00,24.4,18.5,30.39,East,79,0.0,0.0,78,0.00,,,0.00,Wunderground v.1.15,2013-01-27 02:16:00,
2013-01-26 21:22:00,24.2,18.3,30.40,ENE,78,0.0,0.0,78,0.00,,,0.00,Wunderground v.1.15,2013-01-27 02:22:00,
2013-01-26 21:28:00,24.0,18.1,30.40,ENE,77,0.0,0.0,78,0.00,,,0.00,Wunderground v.1.15,2013-01-27 02:28:00,
2013-01-26 21:34:00,23.8,18.2,30.40,East,80,0.0,0.0,79,0.00,,,0.00,Wunderground v.1.15,2013-01-27 02:34:00,
2013-01-26 21:40:00,23.4,18.1,30.41,SW,222,0.0,1.0,80,0.00,,,0.00,Wunderground v.1.15,2013-01-27 02:40:00,
2013-01-26 21:46:00,23.0,18.0,30.41,SSW,204,1.0,2.0,81,0.00,,,0.00,Wunderground v.1.15,2013-01-27 02:46:00,
2013-01-26 21:52:00,22.6,17.6,30.42,SSW,204,1.0,1.0,81,0.00,,,0.00,Wunderground v.1.15,2013-01-27 02:52:00,
2013-01-26 21:58:00,22.4,17.5,30.42,SSW,204,0.0,1.0,81,0.00,,,0.00,Wunderground v.1.15,2013-01-27 02:58:00,
2013-01-26 22:04:00,22.2,17.5,30.42,SSW,205,0.0,0.0,82,0.00,,,0.00,Wunderground v.1.15,2013-01-27 03:04:00,
2013-01-26 22:10:00,22.0,17.3,30.42,SSW,200,0.0,1.0,82,0.00,,,0.00,Wunderground v.1.15,2013-01-27 03:10:00,
2013-01-26 22:16:00,21.5,16.9,30.42,SSW,207,1.0,1.0,82,0.00,,,0.00,Wunderground v.1.15,2013-01-27 03:16:00,
2013-01-26 22:22:00,21.1,16.7,30.43,SSW,204,1.0,1.0,83,0.00,,,0.00,Wunderground v.1.15,2013-01-27 03:22:00,
2013-01-26 22:28:00,20.9,16.5,30.43,SSW,205,1.0,1.0,83,0.00,,,0.00,Wunderground v.1.15,2013-01-27 03:28:00,
2013-01-26 22:34:00,20.8,16.7,30.43,SSW,205,1.0,1.0,84,0.00,,,0.00,Wunderground v.1.15,2013-01-27 03:34:00,
2013-01-26 22:40:00,20.9,17.1,30.43,South,181,0.0,0.0,85,0.00,,,0.00,Wunderground v.1.15,2013-01-27 03:40:00,
2013-01-26 22:46:00,20.8,17.0,30.43,South,181,0.0,0.0,85,0.00,,,0.00,Wunderground v.1.15,2013-01-27 03:46:00,
2013-01-26 22:52:00,20.8,17.0,30.43,SE,134,0.0,0.0,85,0.00,,,0.00,Wunderground v.1.15,2013-01-27 03:52:00,
2013-01-26 22:58:00,20.9,17.1,30.42,SE,134,0.0,0.0,85,0.00,,,0.00,Wunderground v.1.15,2013-01-27 03:58:00,
2013-01-26 23:04:00,20.9,17.1,30.43,SE,134,0.0,0.0,85,0.00,,,0.00,Wunderground v.1.15,2013-01-27 04:04:00,
2013-01-26 23:10:00,20.8,17.0,30.43,SE,134,0.0,0.0,85,0.00,,,0.00,Wunderground v.1.15,2013-01-27 04:10:00,
2013-01-26 23:16:00,21.1,17.6,30.43,SE,134,0.0,0.0,86,0.00,,,0.00,Wunderground v.1.15,2013-01-27 04:16:00,
2013-01-26 23:22:00,21.2,17.4,30.43,SE,134,0.0,0.0,85,0.00,,,0.00,Wunderground v.1.15,2013-01-27 04:22:00,
2013-01-26 23:28:00,21.2,17.4,30.43,SE,134,0.0,0.0,85,0.00,,,0.00,Wunderground v.1.15,2013-01-27 04:28:00,
2013-01-26 23:34:00,21.3,17.5,30.43,SE,134,0.0,0.0,85,0.00,,,0.00,Wunderground v.1.15,2013-01-27 04:34:00,
2013-01-26 23:40:00,21.3,17.5,30.43,SE,134,0.0,0.0,85,0.00,,,0.00,Wunderground v.1.15,2013-01-27 04:40:00,
2013-01-26 23:46:00,21.0,17.2,30.43,SE,134,0.0,0.0,85,0.00,,,0.00,Wunderground v.1.15,2013-01-27 04:46:00,
2013-01-26 23:52:00,20.6,16.8,30.43,SE,134,0.0,0.0,85,0.00,,,0.00,Wunderground v.1.15,2013-01-27 04:52:00,
2013-01-26 23:58:00,20.4,16.9,30.43,SE,134,0.0,0.0,86,0.00,,,0.00,Wunderground v.1.15,2013-01-27 04:58:00,